| time (UTC) | temp F | wind direction | speed MPH | gust MPH | rain 1hr in | rain 24hr in | rain mn in | humidity % | barometer mb |
| 20260507234542 | 59 | 79 | 4.0 | 7.0 | 0.00 | 0.00 | 0.00 | 89 | 1013.8 |
| 20260507234042 | 59 | 60 | 5.0 | 7.0 | 0.00 | 0.00 | 0.00 | 88 | 1013.9 |
| 20260507233542 | 59 | 68 | 5.0 | 7.0 | 0.00 | 0.00 | 0.00 | 88 | 1014.0 |
| 20260507232542 | 59 | 74 | 5.0 | 7.0 | 0.00 | 0.00 | 0.00 | 88 | 1013.9 |
| 20260507232042 | 59 | 70 | 6.0 | 7.0 | 0.00 | 0.00 | 0.00 | 88 | 1013.9 |
| 20260507231542 | 60 | 78 | 5.0 | 7.0 | 0.00 | 0.00 | 0.00 | 87 | 1013.9 |
| 20260507231043 | 60 | 66 | 5.0 | 7.0 | 0.00 | 0.00 | 0.00 | 87 | 1013.9 |
| 20260507230542 | 60 | 70 | 4.0 | 8.0 | 0.00 | 0.00 | 0.00 | 87 | 1013.9 |
| 20260507230042 | 60 | 73 | 3.0 | 7.0 | 0.00 | 0.00 | 0.00 | 86 | 1013.9 |
| 20260507225542 | 60 | 50 | 5.0 | 12.0 | 0.00 | 0.00 | 0.00 | 86 | 1013.7 |
| 20260507225042 | 61 | 58 | 7.0 | 10.0 | 0.00 | 0.00 | 0.00 | 86 | 1013.8 |
| 20260507224542 | 61 | 64 | 7.0 | 12.0 | 0.00 | 0.00 | 0.00 | 85 | 1013.9 |
| 20260507224042 | 61 | 69 | 7.0 | 12.0 | 0.00 | 0.00 | 0.00 | 85 | 1013.9 |
| 20260507223558 | 61 | 72 | 6.0 | 12.0 | 0.00 | 0.00 | 0.00 | 85 | 1013.9 |
| 20260507223041 | 61 | 85 | 6.0 | 9.0 | 0.00 | 0.00 | 0.00 | 85 | 1013.8 |
| 20260507222542 | 61 | 82 | 6.0 | 14.0 | 0.00 | 0.00 | 0.00 | 85 | 1013.7 |
| 20260507221042 | 61 | 66 | 6.0 | 12.0 | 0.00 | 0.00 | 0.00 | 84 | 1013.5 |
| 20260507215542 | 62 | 71 | 5.0 | 8.0 | 0.00 | 0.00 | 0.00 | 81 | 1013.6 |
| 20260507215041 | 62 | 69 | 5.0 | 8.0 | 0.00 | 0.00 | 0.00 | 80 | 1013.6 |
| 20260507214542 | 62 | 67 | 5.0 | 7.0 | 0.00 | 0.00 | 0.00 | 79 | 1013.6 |
| 20260507214042 | 62 | 65 | 6.0 | 8.0 | 0.00 | 0.00 | 0.00 | 78 | 1013.6 |
| 20260507213542 | 62 | 67 | 5.0 | 8.0 | 0.00 | 0.00 | 0.00 | 78 | 1013.5 |
| 20260507213047 | 63 | 82 | 3.0 | 7.0 | 0.00 | 0.00 | 0.00 | 78 | 1013.4 |
| 20260507212541 | 63 | 94 | 4.0 | 8.0 | 0.00 | 0.00 | 0.00 | 79 | 1013.4 |
| 20260507212042 | 63 | 73 | 5.0 | 7.0 | 0.00 | 0.00 | 0.00 | 79 | 1013.4 |
| 20260507211543 | 63 | 69 | 3.0 | 5.0 | 0.00 | 0.00 | 0.00 | 79 | 1013.4 |
| 20260507211041 | 62 | 100 | 4.0 | 7.0 | 0.00 | 0.00 | 0.00 | 80 | 1013.3 |
| 20260507210041 | 62 | 62 | 5.0 | 9.0 | 0.00 | 0.00 | 0.00 | 80 | 1013.3 |
| 20260507205541 | 62 | 69 | 3.0 | 6.0 | 0.00 | 0.00 | 0.00 | 80 | 1013.3 |
| 20260507205041 | 62 | 83 | 2.0 | 3.0 | 0.00 | 0.00 | 0.00 | 80 | 1013.2 |
| 20260507204041 | 62 | 107 | 4.0 | 7.0 | 0.00 | 0.00 | 0.00 | 80 | 1013.1 |
| 20260507203042 | 61 | 106 | 0.0 | 1.0 | 0.00 | 0.00 | 0.00 | 80 | 1013.0 |
| 20260507202541 | 61 | 106 | 0.0 | 1.0 | 0.00 | 0.00 | 0.00 | 80 | 1013.0 |
| 20260507202041 | 61 | 106 | 0.0 | 1.0 | 0.00 | 0.00 | 0.00 | 79 | 1012.9 |
| 20260507201556 | 61 | 106 | 0.0 | 2.0 | 0.00 | 0.00 | 0.00 | 79 | 1012.9 |
| 20260507201041 | 62 | 106 | 3.0 | 3.0 | 0.00 | 0.00 | 0.00 | 77 | 1012.9 |
| 20260507200541 | 62 | 73 | 2.0 | 3.0 | 0.00 | 0.00 | 0.00 | 78 | 1012.8 |
| 20260507200041 | 62 | 15 | 0.0 | 0.0 | 0.00 | 0.00 | 0.00 | 77 | 1012.7 |
| 20260507195541 | 62 | 15 | 0.0 | 1.0 | 0.00 | 0.00 | 0.00 | 77 | 1012.7 |
| 20260507194545 | 63 | 15 | 2.0 | 2.0 | 0.00 | 0.00 | 0.00 | 76 | 1012.6 |
| 20260507194041 | 63 | 15 | 2.0 | 2.0 | 0.00 | 0.00 | 0.00 | 75 | 1012.5 |
| 20260507193041 | 63 | 15 | 1.0 | 3.0 | 0.00 | 0.00 | 0.00 | 75 | 1012.5 |
| 20260507192541 | 64 | 15 | 1.0 | 2.0 | 0.00 | 0.00 | 0.00 | 74 | 1012.4 |
| 20260507192044 | 64 | 15 | 0.0 | 0.0 | 0.00 | 0.00 | 0.00 | 74 | 1012.3 |
| 20260507191544 | 64 | 15 | 0.0 | 0.0 | 0.00 | 0.00 | 0.00 | 74 | 1012.3 |
| 20260507191046 | 65 | 15 | 0.0 | 0.0 | 0.00 | 0.00 | 0.00 | 73 | 1012.2 |
| 20260507190541 | 65 | 15 | 0.0 | 1.0 | 0.00 | 0.00 | 0.00 | 73 | 1012.2 |
| 20260507190041 | 65 | 15 | 1.0 | 2.0 | 0.00 | 0.00 | 0.00 | 72 | 1012.1 |
| 20260507185541 | 65 | 9 | 1.0 | 2.0 | 0.00 | 0.00 | 0.00 | 73 | 1012.2 |
| 20260507185041 | 65 | 9 | 0.0 | 1.0 | 0.00 | 0.00 | 0.00 | 73 | 1012.2 |
| 20260507184541 | 65 | 9 | 0.0 | 0.0 | 0.00 | 0.00 | 0.00 | 71 | 1012.1 |
| 20260507184040 | 66 | 9 | 0.0 | 0.0 | 0.00 | 0.00 | 0.00 | 71 | 1012.1 |
| 20260507183541 | 66 | 20 | 0.0 | 0.0 | 0.00 | 0.00 | 0.00 | 69 | 1012.0 |
| 20260507183042 | 67 | 20 | 0.0 | 0.0 | 0.00 | 0.00 | 0.00 | 69 | 1011.9 |
| 20260507182541 | 67 | 20 | 0.0 | 0.0 | 0.00 | 0.00 | 0.00 | 67 | 1011.8 |
| 20260507182041 | 68 | 20 | 0.0 | 0.0 | 0.00 | 0.00 | 0.00 | 67 | 1011.7 |
| 20260507181541 | 68 | 20 | 0.0 | 0.0 | 0.00 | 0.00 | 0.00 | 66 | 1011.6 |
| 20260507181043 | 69 | 20 | 0.0 | 0.0 | 0.00 | 0.00 | 0.00 | 64 | 1011.6 |
| 20260507180040 | 70 | 2 | 0.0 | 2.0 | 0.00 | 0.00 | 0.00 | 60 | 1011.6 |
| 20260507175541 | 71 | 255 | 1.0 | 2.0 | 0.00 | 0.00 | 0.00 | 56 | 1011.5 |
| 20260507174542 | 71 | 228 | 0.0 | 2.0 | 0.00 | 0.00 | 0.00 | 55 | 1011.4 |
| 20260507174041 | 71 | 225 | 0.0 | 2.0 | 0.00 | 0.00 | 0.00 | 57 | 1011.3 |
| 20260507173542 | 71 | 225 | 1.0 | 2.0 | 0.00 | 0.00 | 0.00 | 55 | 1011.2 |
| 20260507173041 | 71 | 220 | 1.0 | 2.0 | 0.00 | 0.00 | 0.00 | 54 | 1011.2 |
| 20260507172541 | 72 | 220 | 2.0 | 3.0 | 0.00 | 0.00 | 0.00 | 54 | 1011.2 |
| 20260507172044 | 72 | 220 | 2.0 | 3.0 | 0.00 | 0.00 | 0.00 | 54 | 1011.2 |
| 20260507171544 | 72 | 241 | 1.0 | 5.0 | 0.00 | 0.00 | 0.00 | 54 | 1011.2 |
| 20260507170541 | 72 | 237 | 4.0 | 5.0 | 0.00 | 0.00 | 0.00 | 53 | 1011.1 |
| 20260507170040 | 72 | 227 | 1.0 | 3.0 | 0.00 | 0.00 | 0.00 | 53 | 1011.0 |
| 20260507165540 | 73 | 225 | 3.0 | 3.0 | 0.00 | 0.00 | 0.00 | 52 | 1011.0 |
| 20260507165040 | 73 | 276 | 2.0 | 6.0 | 0.00 | 0.00 | 0.00 | 53 | 1011.1 |
| 20260507164041 | 73 | 240 | 3.0 | 6.0 | 0.00 | 0.00 | 0.00 | 52 | 1011.1 |
| 20260507163041 | 73 | 235 | 2.0 | 6.0 | 0.00 | 0.00 | 0.00 | 52 | 1011.0 |
| 20260507162540 | 74 | 236 | 3.0 | 5.0 | 0.00 | 0.00 | 0.00 | 53 | 1011.1 |
| 20260507161540 | 74 | 271 | 4.0 | 7.0 | 0.00 | 0.00 | 0.00 | 51 | 1011.1 |
| 20260507161041 | 74 | 248 | 3.0 | 6.0 | 0.00 | 0.00 | 0.00 | 53 | 1011.1 |
| 20260507160547 | 73 | 266 | 5.0 | 8.0 | 0.00 | 0.00 | 0.00 | 53 | 1011.2 |
| 20260507160040 | 73 | 246 | 3.0 | 5.0 | 0.00 | 0.00 | 0.00 | 54 | 1011.2 |
| 20260507155541 | 73 | 318 | 1.0 | 7.0 | 0.00 | 0.00 | 0.00 | 55 | 1011.2 |
| 20260507154540 | 73 | 314 | 1.0 | 6.0 | 0.00 | 0.00 | 0.00 | 55 | 1011.1 |
| 20260507154041 | 73 | 311 | 2.0 | 7.0 | 0.00 | 0.00 | 0.00 | 54 | 1011.1 |
| 20260507153541 | 73 | 293 | 1.0 | 2.0 | 0.00 | 0.00 | 0.00 | 54 | 1011.2 |
| 20260507153040 | 72 | 298 | 3.0 | 3.0 | 0.00 | 0.00 | 0.00 | 54 | 1011.2 |
| 20260507152541 | 72 | 27 | 0.0 | 1.0 | 0.00 | 0.00 | 0.00 | 54 | 1011.2 |
| 20260507152042 | 72 | 278 | 1.0 | 3.0 | 0.00 | 0.00 | 0.00 | 53 | 1011.2 |
| 20260507151540 | 72 | 291 | 2.0 | 3.0 | 0.00 | 0.00 | 0.00 | 54 | 1011.2 |
| 20260507150040 | 73 | 282 | 4.0 | 9.0 | 0.00 | 0.00 | 0.00 | 54 | 1011.2 |
| 20260507145548 | 72 | 111 | 1.0 | 3.0 | 0.00 | 0.00 | 0.00 | 52 | 1011.2 |
| 20260507145040 | 74 | 216 | 2.0 | 7.0 | 0.00 | 0.00 | 0.00 | 51 | 1011.2 |
| 20260507144540 | 74 | 186 | 4.0 | 8.0 | 0.00 | 0.00 | 0.00 | 51 | 1011.2 |
| 20260507143541 | 73 | 350 | 2.0 | 3.0 | 0.00 | 0.00 | 0.00 | 54 | 1011.2 |
| 20260507142540 | 73 | 260 | 3.0 | 7.0 | 0.00 | 0.00 | 0.00 | 52 | 1011.3 |
| 20260507142041 | 73 | 290 | 2.0 | 3.0 | 0.00 | 0.00 | 0.00 | 52 | 1011.3 |
| 20260507141540 | 74 | 317 | 3.0 | 7.0 | 0.00 | 0.00 | 0.00 | 49 | 1011.3 |
| 20260507141040 | 75 | 306 | 5.0 | 8.0 | 0.00 | 0.00 | 0.00 | 50 | 1011.3 |
| 20260507140540 | 75 | 260 | 7.0 | 9.0 | 0.00 | 0.00 | 0.00 | 51 | 1011.3 |
| 20260507140042 | 75 | 341 | 3.0 | 7.0 | 0.00 | 0.00 | 0.00 | 52 | 1011.3 |
| 20260507135540 | 74 | 290 | 3.0 | 7.0 | 0.00 | 0.00 | 0.00 | 50 | 1011.4 |
| 20260507135042 | 74 | 291 | 9.0 | 13.0 | 0.00 | 0.00 | 0.00 | 49 | 1011.4 |
| 20260507133540 | 74 | 287 | 5.0 | 9.0 | 0.00 | 0.00 | 0.00 | 50 | 1011.4 |
| 20260507132540 | 74 | 301 | 5.0 | 12.0 | 0.00 | 0.00 | 0.00 | 49 | 1011.5 |
| 20260507132040 | 74 | 320 | 7.0 | 12.0 | 0.00 | 0.00 | 0.00 | 48 | 1011.5 |
| 20260507131540 | 74 | 275 | 5.0 | 12.0 | 0.00 | 0.00 | 0.00 | 51 | 1011.5 |
| 20260507131041 | 74 | 277 | 5.0 | 10.0 | 0.00 | 0.00 | 0.00 | 52 | 1011.6 |
| 20260507130542 | 73 | 287 | 7.0 | 12.0 | 0.00 | 0.00 | 0.00 | 53 | 1011.6 |
| 20260507125540 | 73 | 291 | 6.0 | 9.0 | 0.00 | 0.00 | 0.00 | 52 | 1011.6 |
| 20260507125041 | 74 | 294 | 6.0 | 10.0 | 0.00 | 0.00 | 0.00 | 54 | 1011.6 |
| 20260507124540 | 74 | 310 | 6.0 | 10.0 | 0.00 | 0.00 | 0.00 | 52 | 1011.6 |
| 20260507124040 | 73 | 270 | 3.0 | 7.0 | 0.00 | 0.00 | 0.00 | 54 | 1011.7 |
| 20260507123539 | 74 | 292 | 5.0 | 13.0 | 0.00 | 0.00 | 0.00 | 51 | 1011.7 |
| 20260507123043 | 73 | 301 | 7.0 | 12.0 | 0.00 | 0.00 | 0.00 | 52 | 1011.6 |
| 20260507122540 | 73 | 279 | 6.0 | 10.0 | 0.00 | 0.00 | 0.00 | 52 | 1011.6 |
| 20260507122039 | 73 | 275 | 6.0 | 10.0 | 0.00 | 0.00 | 0.00 | 53 | 1011.7 |
| 20260507121539 | 73 | 293 | 9.0 | 12.0 | 0.00 | 0.00 | 0.00 | 53 | 1011.8 |
| 20260507121040 | 73 | 316 | 5.0 | 12.0 | 0.00 | 0.00 | 0.00 | 53 | 1011.7 |
| 20260507120039 | 73 | 268 | 4.0 | 10.0 | 0.00 | 0.00 | 0.00 | 57 | 1011.8 |
| 20260507115540 | 72 | 296 | 6.0 | 12.0 | 0.00 | 0.00 | 0.00 | 56 | 1011.9 |
| 20260507115041 | 72 | 299 | 7.0 | 13.0 | 0.00 | 0.00 | 0.00 | 53 | 1011.9 |
| 20260507114539 | 73 | 268 | 2.0 | 12.0 | 0.00 | 0.00 | 0.00 | 56 | 1011.9 |
| 20260507114039 | 72 | 311 | 3.0 | 7.0 | 0.00 | 0.00 | 0.00 | 56 | 1012.0 |
| 20260507113543 | 71 | 288 | 5.0 | 8.0 | 0.00 | 0.00 | 0.00 | 56 | 1012.0 |
| 20260507113040 | 72 | 262 | 3.0 | 7.0 | 0.00 | 0.00 | 0.00 | 56 | 1012.1 |
| 20260507112539 | 72 | 291 | 3.0 | 6.0 | 0.00 | 0.00 | 0.00 | 59 | 1012.2 |
| 20260507111540 | 71 | 255 | 1.0 | 5.0 | 0.00 | 0.00 | 0.00 | 57 | 1012.3 |
| 20260507111043 | 71 | 229 | 3.0 | 10.0 | 0.00 | 0.00 | 0.00 | 60 | 1012.3 |
| 20260507110539 | 71 | 238 | 5.0 | 10.0 | 0.00 | 0.00 | 0.00 | 61 | 1012.3 |
| 20260507110039 | 71 | 323 | 3.0 | 9.0 | 0.00 | 0.00 | 0.00 | 58 | 1012.4 |
| 20260507105040 | 69 | 252 | 2.0 | 6.0 | 0.00 | 0.00 | 0.00 | 63 | 1012.5 |
| 20260507104040 | 71 | 222 | 5.0 | 10.0 | 0.00 | 0.00 | 0.00 | 60 | 1012.5 |
| 20260507103539 | 70 | 244 | 5.0 | 6.0 | 0.00 | 0.00 | 0.00 | 63 | 1012.6 |
| 20260507103041 | 71 | 266 | 3.0 | 5.0 | 0.00 | 0.00 | 0.00 | 62 | 1012.6 |
| 20260507102540 | 70 | 236 | 5.0 | 9.0 | 0.00 | 0.00 | 0.00 | 60 | 1012.6 |
| 20260507102040 | 71 | 244 | 5.0 | 9.0 | 0.00 | 0.00 | 0.00 | 60 | 1012.6 |
| 20260507101040 | 70 | 221 | 4.0 | 8.0 | 0.00 | 0.00 | 0.00 | 63 | 1012.7 |
| 20260507100539 | 69 | 238 | 3.0 | 5.0 | 0.00 | 0.00 | 0.00 | 65 | 1012.7 |
| 20260507100039 | 70 | 273 | 3.0 | 7.0 | 0.00 | 0.00 | 0.00 | 66 | 1012.8 |
| 20260507095540 | 69 | 226 | 2.0 | 7.0 | 0.00 | 0.00 | 0.00 | 66 | 1012.8 |
| 20260507094539 | 70 | 270 | 3.0 | 9.0 | 0.00 | 0.00 | 0.00 | 66 | 1012.8 |
| 20260507094047 | 69 | 298 | 5.0 | 9.0 | 0.00 | 0.00 | 0.00 | 68 | 1012.8 |
| 20260507093540 | 68 | 295 | 5.0 | 8.0 | 0.00 | 0.00 | 0.00 | 65 | 1012.7 |
| 20260507093039 | 69 | 224 | 5.0 | 9.0 | 0.00 | 0.00 | 0.00 | 68 | 1012.7 |
| 20260507092540 | 68 | 281 | 4.0 | 9.0 | 0.00 | 0.00 | 0.00 | 70 | 1012.6 |
| 20260507092039 | 68 | 295 | 6.0 | 9.0 | 0.00 | 0.00 | 0.00 | 70 | 1012.6 |
| 20260507091546 | 67 | 285 | 6.0 | 12.0 | 0.00 | 0.00 | 0.00 | 71 | 1012.6 |
| 20260507091040 | 67 | 267 | 5.0 | 7.0 | 0.00 | 0.00 | 0.00 | 72 | 1012.7 |
| 20260507090039 | 67 | 274 | 3.0 | 8.0 | 0.00 | 0.00 | 0.00 | 75 | 1012.7 |
| 20260507085540 | 67 | 231 | 7.0 | 12.0 | 0.00 | 0.00 | 0.00 | 73 | 1012.7 |
| 20260507085039 | 66 | 247 | 5.0 | 8.0 | 0.00 | 0.00 | 0.00 | 74 | 1012.7 |
| 20260507084539 | 66 | 249 | 5.0 | 9.0 | 0.00 | 0.00 | 0.00 | 74 | 1012.7 |
| 20260507084039 | 65 | 279 | 3.0 | 12.0 | 0.00 | 0.00 | 0.00 | 75 | 1012.7 |
| 20260507083539 | 65 | 254 | 7.0 | 9.0 | 0.00 | 0.00 | 0.00 | 75 | 1012.7 |
| 20260507083039 | 65 | 248 | 5.0 | 8.0 | 0.00 | 0.00 | 0.00 | 77 | 1012.6 |
| 20260507082539 | 64 | 268 | 5.0 | 7.0 | 0.00 | 0.00 | 0.00 | 76 | 1012.6 |
| 20260507082040 | 64 | 286 | 5.0 | 8.0 | 0.00 | 0.00 | 0.00 | 76 | 1012.6 |
| 20260507081539 | 64 | 235 | 4.0 | 9.0 | 0.00 | 0.00 | 0.00 | 77 | 1012.5 |
| 20260507081041 | 64 | 271 | 5.0 | 7.0 | 0.00 | 0.00 | 0.00 | 77 | 1012.5 |
| 20260507075546 | 63 | 256 | 4.0 | 7.0 | 0.00 | 0.00 | 0.00 | 81 | 1012.6 |
| 20260507075039 | 63 | 261 | 5.0 | 8.0 | 0.00 | 0.00 | 0.00 | 82 | 1012.6 |
| 20260507074539 | 62 | 262 | 5.0 | 7.0 | 0.00 | 0.00 | 0.00 | 82 | 1012.6 |
| 20260507074039 | 62 | 228 | 4.0 | 7.0 | 0.00 | 0.00 | 0.00 | 83 | 1012.5 |
| 20260507073540 | 62 | 264 | 6.0 | 8.0 | 0.00 | 0.00 | 0.00 | 84 | 1012.6 |
| 20260507073039 | 61 | 229 | 3.0 | 8.0 | 0.00 | 0.00 | 0.00 | 84 | 1012.6 |
| 20260507072544 | 61 | 242 | 5.0 | 8.0 | 0.00 | 0.00 | 0.00 | 84 | 1012.5 |
| 20260507071541 | 60 | 250 | 5.0 | 7.0 | 0.00 | 0.00 | 0.00 | 85 | 1012.4 |
| 20260507071040 | 60 | 265 | 5.0 | 9.0 | 0.00 | 0.00 | 0.00 | 85 | 1012.4 |
| 20260507070539 | 60 | 217 | 2.0 | 7.0 | 0.00 | 0.00 | 0.00 | 86 | 1012.3 |
| 20260507070044 | 59 | 248 | 3.0 | 5.0 | 0.00 | 0.00 | 0.00 | 86 | 1012.3 |
| 20260507065541 | 59 | 273 | 3.0 | 5.0 | 0.00 | 0.00 | 0.00 | 88 | 1012.3 |
| 20260507065039 | 58 | 196 | 2.0 | 5.0 | 0.00 | 0.00 | 0.00 | 88 | 1012.2 |
| 20260507064540 | 58 | 238 | 2.0 | 3.0 | 0.00 | 0.00 | 0.00 | 89 | 1012.2 |
| 20260507064039 | 57 | 247 | 2.0 | 3.0 | 0.00 | 0.01 | 0.00 | 89 | 1012.2 |
| 20260507063539 | 57 | 261 | 1.0 | 3.0 | 0.00 | 0.01 | 0.00 | 89 | 1012.1 |
| 20260507063040 | 57 | 232 | 3.0 | 5.0 | 0.00 | 0.01 | 0.00 | 88 | 1012.1 |
| 20260507062039 | 57 | 250 | 2.0 | 5.0 | 0.00 | 0.01 | 0.00 | 89 | 1012.1 |
| 20260507061039 | 56 | 228 | 3.0 | 3.0 | 0.00 | 0.02 | 0.00 | 89 | 1012.0 |
| 20260507060539 | 56 | 244 | 2.0 | 3.0 | 0.00 | 0.02 | 0.00 | 89 | 1011.9 |
| 20260507054538 | 55 | 279 | 3.0 | 3.0 | 0.00 | 0.02 | 0.00 | 89 | 1011.9 |
| 20260507053539 | 55 | 278 | 1.0 | 3.0 | 0.00 | 0.03 | 0.00 | 89 | 1011.8 |
| 20260507052039 | 53 | 311 | 2.0 | 3.0 | 0.00 | 0.05 | 0.00 | 89 | 1011.6 |
| 20260507051538 | 53 | 267 | 0.0 | 2.0 | 0.00 | 0.06 | 0.00 | 90 | 1011.5 |
| 20260507051040 | 53 | 265 | 1.0 | 3.0 | 0.00 | 0.06 | 0.00 | 90 | 1011.4 |
| 20260507050539 | 52 | 271 | 1.0 | 3.0 | 0.00 | 0.06 | 0.00 | 90 | 1011.4 |
| 20260507050038 | 52 | 276 | 1.0 | 2.0 | 0.00 | 0.07 | 0.00 | 91 | 1011.3 |
| 20260507045539 | 52 | 273 | 1.0 | 3.0 | 0.00 | 0.07 | 0.00 | 92 | 1011.2 |
| 20260507045038 | 51 | 245 | 0.0 | 0.0 | 0.00 | 0.08 | 0.00 | 92 | 1011.2 |
| 20260507044540 | 51 | 246 | 0.0 | 0.0 | 0.00 | 0.08 | 0.00 | 92 | 1011.1 |
| 20260507043538 | 50 | 258 | 0.0 | 0.0 | 0.00 | 0.08 | 0.00 | 92 | 1011.0 |
| 20260507043053 | 50 | 258 | 0.0 | 1.0 | 0.00 | 0.08 | 0.00 | 92 | 1011.0 |
| 20260507042538 | 51 | 259 | 0.0 | 1.0 | 0.00 | 0.08 | 0.00 | 92 | 1011.1 |
| 20260507042038 | 51 | 275 | 0.0 | 0.0 | 0.00 | 0.08 | 0.00 | 92 | 1011.1 |
| 20260507041540 | 51 | 273 | 0.0 | 0.0 | 0.00 | 0.09 | 0.00 | 92 | 1011.0 |
| 20260507041039 | 51 | 273 | 0.0 | 2.0 | 0.00 | 0.09 | 0.00 | 92 | 1011.0 |
| 20260507040539 | 51 | 263 | 2.0 | 3.0 | 0.00 | 0.11 | 0.00 | 94 | 1011.0 |
| 20260507040040 | 51 | 249 | 0.0 | 0.0 | 0.00 | 0.11 | 0.00 | 94 | 1011.0 |
| 20260507035542 | 51 | 254 | 1.0 | 2.0 | 0.00 | 0.11 | 0.00 | 95 | 1010.9 |
| 20260507035038 | 51 | 258 | 1.0 | 3.0 | 0.00 | 0.11 | 0.00 | 95 | 1010.9 |
| 20260507034538 | 51 | 228 | 1.0 | 3.0 | 0.00 | 0.11 | 0.00 | 95 | 1010.8 |
| 20260507034038 | 50 | 252 | 1.0 | 2.0 | 0.00 | 0.11 | 0.00 | 95 | 1010.8 |
| 20260507033538 | 50 | 232 | 1.0 | 1.0 | 0.00 | 0.11 | 0.00 | 96 | 1010.8 |
| 20260507033038 | 50 | 231 | 0.0 | 1.0 | 0.00 | 0.11 | 0.00 | 96 | 1010.7 |
| 20260507032538 | 51 | 237 | 1.0 | 3.0 | 0.00 | 0.11 | 0.00 | 96 | 1010.6 |
| 20260507032038 | 50 | 221 | 2.0 | 3.0 | 0.00 | 0.11 | 0.00 | 96 | 1010.6 |
| 20260507031538 | 51 | 84 | 0.0 | 0.0 | 0.00 | 0.11 | 0.00 | 96 | 1010.6 |
| 20260507031038 | 51 | 84 | 0.0 | 0.0 | 0.00 | 0.11 | 0.00 | 96 | 1010.6 |
| 20260507030539 | 51 | 84 | 0.0 | 0.0 | 0.00 | 0.11 | 0.00 | 96 | 1010.7 |
| 20260507030038 | 51 | 84 | 0.0 | 0.0 | 0.00 | 0.11 | 0.00 | 95 | 1010.7 |
| 20260507025538 | 51 | 84 | 0.0 | 0.0 | 0.00 | 0.11 | 0.00 | 96 | 1010.7 |
| 20260507025038 | 51 | 84 | 0.0 | 0.0 | 0.00 | 0.11 | 0.00 | 95 | 1010.6 |
| 20260507024538 | 51 | 84 | 0.0 | 2.0 | 0.00 | 0.11 | 0.00 | 96 | 1010.6 |
| 20260507024045 | 52 | 232 | 0.0 | 0.0 | 0.00 | 0.11 | 0.00 | 96 | 1010.6 |
| 20260507023540 | 52 | 232 | 0.0 | 0.0 | 0.00 | 0.11 | 0.00 | 96 | 1010.6 |
| 20260507023056 | 52 | 232 | 0.0 | 3.0 | 0.00 | 0.11 | 0.00 | 96 | 1010.6 |
| 20260507022545 | 52 | 173 | 0.0 | 2.0 | 0.00 | 0.11 | 0.00 | 96 | 1010.6 |
| 20260507022038 | 52 | 77 | 0.0 | 0.0 | 0.00 | 0.11 | 0.00 | 96 | 1010.6 |
| 20260507021539 | 52 | 77 | 0.0 | 0.0 | 0.00 | 0.11 | 0.00 | 96 | 1010.7 |
| 20260507021038 | 52 | 77 | 0.0 | 0.0 | 0.00 | 0.11 | 0.00 | 96 | 1010.7 |
| 20260507020539 | 52 | 77 | 0.0 | 0.0 | 0.00 | 0.11 | 0.00 | 96 | 1010.7 |
| 20260507020038 | 52 | 77 | 0.0 | 0.0 | 0.00 | 0.11 | 0.00 | 95 | 1010.7 |
| 20260507015543 | 52 | 77 | 0.0 | 0.0 | 0.00 | 0.11 | 0.00 | 95 | 1010.6 |
| 20260507015045 | 52 | 77 | 0.0 | 0.0 | 0.00 | 0.11 | 0.00 | 95 | 1010.6 |
| 20260507014537 | 52 | 77 | 0.0 | 1.0 | 0.00 | 0.11 | 0.00 | 95 | 1010.6 |
| 20260507014039 | 52 | 77 | 0.0 | 2.0 | 0.00 | 0.11 | 0.00 | 95 | 1010.6 |
| 20260507013538 | 52 | 77 | 2.0 | 3.0 | 0.00 | 0.11 | 0.00 | 95 | 1010.6 |
| 20260507013038 | 52 | 77 | 2.0 | 5.0 | 0.00 | 0.11 | 0.00 | 94 | 1010.5 |
| 20260507012538 | 52 | 87 | 2.0 | 5.0 | 0.00 | 0.11 | 0.00 | 94 | 1010.5 |
| 20260507011538 | 52 | 277 | 0.0 | 0.0 | 0.00 | 0.11 | 0.00 | 94 | 1010.5 |
| 20260507011038 | 53 | 277 | 0.0 | 0.0 | 0.00 | 0.11 | 0.00 | 94 | 1010.5 |
| 20260507005538 | 53 | 277 | 1.0 | 2.0 | 0.00 | 0.11 | 0.00 | 93 | 1010.4 |
| 20260507005038 | 54 | 17 | 0.0 | 0.0 | 0.00 | 0.11 | 0.00 | 94 | 1010.5 |
| 20260507004538 | 54 | 17 | 1.0 | 2.0 | 0.00 | 0.11 | 0.00 | 94 | 1010.4 |
| 20260507004040 | 54 | 5 | 0.0 | 0.0 | 0.00 | 0.11 | 0.00 | 94 | 1010.4 |
| 20260507003038 | 54 | 143 | 0.0 | 0.0 | 0.00 | 0.11 | 0.00 | 93 | 1010.3 |
| 20260507002538 | 54 | 143 | 0.0 | 0.0 | 0.00 | 0.11 | 0.00 | 93 | 1010.3 |
| 20260507002038 | 54 | 54 | 0.0 | 0.0 | 0.00 | 0.11 | 0.00 | 93 | 1010.3 |
| 20260507001556 | 54 | 54 | 1.0 | 2.0 | 0.00 | 0.11 | 0.00 | 93 | 1010.3 |
| 20260507001038 | 54 | 54 | 0.0 | 3.0 | 0.00 | 0.11 | 0.00 | 92 | 1010.3 |
| 20260507000538 | 54 | 72 | 1.0 | 3.0 | 0.00 | 0.11 | 0.00 | 91 | 1010.4 |
| 20260507000039 | 54 | 72 | 1.0 | 3.0 | 0.00 | 0.11 | 0.00 | 91 | 1010.4 |
| 20260506235537 | 55 | 88 | 2.0 | 5.0 | 0.00 | 0.11 | 0.00 | 90 | 1010.3 |
| 20260506235039 | 55 | 184 | 0.0 | 3.0 | 0.00 | 0.11 | 0.00 | 90 | 1010.3 |